ARIANE 5 R/B, 40148

Orbit data source: Space-Track

ARIANE 5 R/B, 40148 is space debris in HEO originally from a launch on Thu, 11 Sep 2014 UTC launched from the French Guiana (FRGUI). Debris objects in space refer to the collection of defunct objects orbiting the Earth. Examples of debris include non-operational satellites, rocket bodies, and fragments generated from explosions, collisions, or faulty payload assembly.

Loading next visibility...
Identifier
40148, 2014-054C
Orbit
HEO
Country
Flag of FRFR
Related business
Manufacturer
ADS/LV
Mission
Spacecraft
Bus & Motor
ESC-A, Unknown motor
Mass
~5,000 kg wet, ~5,000 kg dry
Launch date (UTC)
2014-09-11 (11 years ago)
Launch vehicle
Unknown
Launch site
French Guiana (FRGUI)
Object type
Payload
Rocket body
Debris
Shape & HBR
Cyl + 1 Nozzle, 3.5 m
Radar Cross Section
41.627 m², Large (>1 m²)

Expand to show TLE details & history
Last TLE update: 2 days ago

TLE from 2 days ago
0 ARIANE 5 R/B
1 40148U 14054C   25257.14159862  .00002532  00000-0  60862-3 0  9995
2 40148   5.3069 166.6485 7050305 104.9722 336.8659  2.57666519 96678
Epoch: 2025-09-14T03:23Z
TLE epoch observation values (Epoch: 2025-09-14T03:23:54.12Z)
Latitude
Longitude
122.21025°
Altitude
7,486.221 km
Speed
6.305 km/s
True Right ascension
11h 06m 12s
True Declination
0° 00' 00"
Sunlit
Object was in daylight at epoch
Visualization orbit readout
Latitude
Unknown
Longitude
Unknown
Altitude
Unknown
Speed
Unknown
Apparent Right ascension
Unknown
Apparent Declination
Unknown
Sunlit
N/A
Visualization observer readout
Local Sidereal Time
23:22:08
Azimuth
Unknown
Elevation
Unknown
Doppler factor
Unknown
Orbital elements
Apogee altitude
31,951.415 km
Perigee altitude
252.858 km
Semi-major axis
22,480.274 km
Eccentricity
0.70503
Inclination
5.3069°
RAAN
166.6485°
Arg. of periapsis
104.9722°
True anomaly
254.88475°
Mean anomaly
336.8659°
Eccentric anomaly
302.97983°
Mean motion
0.64393 °/min
Orbital period
559.06 mins
BSTAR
0.00060862
Loading maneuver chart data...
Computing Atmospheric mass density...
Loading historical data...
Loading historical data...
Loading historical data...
Loading historical data...
Loading historical data...
Loading historical data...
Loading historical data...
Other satellites on launch #54 in the year 2014 (2014-09-11 UTC)

Documentation

Showing up to 5 results
|